Ukiah, CA

10:06 PM PDT on June 22, 2017 (GMT -0700)
Ukiah Municipal

Weather History for KUKI - June, 2013

Change the Weather History Date:

Friday, June 28, 2013

  Actual Average Record
Temperature  
Mean Temperature 81 °F 71 °F  
Max Temperature 101 °F 87 °F 107 °F (1924)
Min Temperature 60 °F 55 °F 39 °F (1909)
Degree Days  
Heating Degree Days 0 0  
Month to date heating degree days 31  
Since 1 June heating degree days 31  
Since 1 July heating degree days 3117  
Cooling Degree Days 16 6  
Month to date cooling degree days 98  
Year to date cooling degree days 150  
Since 1 June cooling degree days 98  
Growing Degree Days 31 (Base 50)    
Moisture  
Dew Point 55 °F    
Average Humidity 50    
Maximum Humidity 84    
Minimum Humidity 16    
Precipitation  
Precipitation 0.00 in 0.01 in 0.51 in (1952)
Month to date precipitation 0.31 0.33  
Year to date precipitation 5.58 23.37  
Since 1 July precipitation 28.28  
Snow  
Snow 0.00 in - - ()
Month to date snowfall 0.0  
Since 1 June snowfall 0.0  
Since 1 July snowfall 0.0  
Snow Depth -    
Sea Level Pressure  
Sea Level Pressure 29.99 in    
Wind  
Wind Speed 3 mph (NW)    
Max Wind Speed 16 mph    
Max Gust Speed 21 mph    
Visibility 10 miles    
Events      
T = Trace of Precipitation, MM = Missing Value Source: NWS Daily Summary

Daily Weather History Graph

Daily Weather History Graph

Search for Another Location

Airport or City:

Trip Planner

Search our weather history database for the weather conditions in past years. The results will help you decide how hot, cold, wet, or windy it might be!

Date:

Astronomy

Jun. 28, 2013 Rise Set
Actual Time 5:49 AM PDT 8:42 PM PDT
Civil Twilight 5:17 AM PDT 9:15 PM PDT
Nautical Twilight 4:36 AM PDT 9:55 PM PDT
Astronomical Twilight 3:49 AM PDT 10:42 PM PDT
Moon No Moon Rise 12:00 PM PDT (6/28)
Length of Visible Light 15h 57m
Length of Day
14h 53m
Waning Gibbous, 65% of the Moon is Illuminated
Jun 28
Waning Gibbous
Jun 29
Last Quarter
Jul 8
New
Jul 15
First Quarter
Jul 22
Full

Hourly Weather History & Observations

Time (PDT) Temp. Heat Index Dew Point Humidity Pressure Visibility Wind Dir Wind Speed Gust Speed Precip Events Conditions
12:56 AM 64.9 °F - 57.9 °F 78% 30.06 in 10.0 mi Calm Calm - N/A   Clear
1:56 AM 64.9 °F - 57.0 °F 75% 30.06 in 10.0 mi Calm Calm - N/A   Clear
2:56 AM 62.1 °F - 57.0 °F 84% 30.05 in 10.0 mi Calm Calm - N/A   Clear
3:56 AM 62.1 °F - 57.0 °F 84% 30.04 in 10.0 mi Calm Calm - N/A   Clear
4:56 AM 62.1 °F - 57.0 °F 84% 30.04 in 10.0 mi Calm Calm - N/A   Clear
5:56 AM 62.1 °F - 57.0 °F 84% 30.04 in 10.0 mi Calm Calm - N/A   Clear
6:56 AM 63.0 °F - 57.9 °F 84% 30.04 in 10.0 mi Calm Calm - N/A   Clear
7:56 AM 69.1 °F - 59.0 °F 70% 30.04 in 10.0 mi Calm Calm - N/A   Clear
8:56 AM 75.0 °F - 61.0 °F 62% 30.03 in 10.0 mi Calm Calm - N/A   Clear
9:56 AM 81.0 °F 81.9 °F 62.1 °F 52% 30.02 in 10.0 mi Calm Calm - N/A   Clear
10:56 AM 88.0 °F 88.4 °F 62.1 °F 42% 30.00 in 10.0 mi Variable 3.5 mph - N/A   Clear
11:56 AM 93.0 °F 93.8 °F 62.1 °F 36% 29.98 in 10.0 mi ESE 5.8 mph - N/A   Clear
12:56 PM 97.0 °F 94.6 °F 54.0 °F 23% 29.97 in 10.0 mi WNW 10.4 mph 17.3 mph N/A   Clear
1:56 PM 99.0 °F - 48.0 °F 18% 29.96 in 10.0 mi NW 11.5 mph 20.7 mph N/A   Clear
2:56 PM 100.0 °F - 46.9 °F 16% 29.95 in 10.0 mi NW 9.2 mph 18.4 mph N/A   Clear
3:56 PM 100.0 °F - 46.9 °F 16% 29.93 in 10.0 mi West 11.5 mph 18.4 mph N/A   Clear
4:56 PM 99.0 °F - 46.9 °F 17% 29.92 in 10.0 mi NW 11.5 mph 18.4 mph N/A   Clear
5:56 PM 96.1 °F - 46.0 °F 18% 29.92 in 10.0 mi NNW 9.2 mph 21.9 mph N/A   Clear
6:56 PM 93.0 °F - 52.0 °F 25% 29.93 in 10.0 mi NNW 9.2 mph - N/A   Clear
7:56 PM 89.1 °F 86.7 °F 53.1 °F 29% 29.94 in 10.0 mi North 5.8 mph 19.6 mph N/A   Clear
8:56 PM 84.9 °F - 51.1 °F 31% 29.94 in 10.0 mi NNE 3.5 mph - N/A   Clear
9:56 PM 82.0 °F - 52.0 °F 35% 29.95 in 10.0 mi Calm Calm - N/A   Clear
10:56 PM 75.9 °F - 54.0 °F 46% 29.95 in 10.0 mi Calm Calm - N/A   Clear
11:56 PM 73.0 °F - 54.0 °F 51% 29.94 in 10.0 mi NW 4.6 mph - N/A   Clear